Total_Precipitation_Accumulation
0.04 0.04 0.05 0.05 0.04 0.02 0.04 0.07 0.14 0.19 0.13 0.15 0.16 0.16 0.16 0.13 0.14 0.11 0.05 0.04 0.03 0.03 0.03 0.03 0.01 0.00 0.00 0.00 0.00 0.01 0.02 0.02 0.03 0.04 0.05 0.04 0.04 0.03
0.04 0.02 0.02 0.03 0.02 0.02 0.01 0.01 0.06 0.13 0.11 0.07 0.12 0.15 0.21 0.24 0.27 0.24 0.14 0.12 0.06 0.06 0.06 0.04 0.02 0.00 0.00 0.00 0.00 0.00 0.00 0.01 0.02 0.03 0.04 0.03 0.01 0.01
0.05 0.04 0.03 0.01 0.01 0.02 0.03 0.04 0.06 0.10 0.14 0.15 0.16 0.18 0.30 0.30 0.26 0.19 0.14 0.14 0.09 0.08 0.09 0.06 0.02 0.00 0.00 0.00 0.00 0.00 0.01 0.01 0.01 0.02 0.02 0.01 0.01 0.01
0.05 0.05 0.05 0.04 0.03 0.02 0.02 0.03 0.09 0.13 0.17 0.18 0.20 0.17 0.17 0.20 0.21 0.21 0.15 0.11 0.09 0.10 0.09 0.08 0.03 0.01 0.00 0.00 0.00 0.00 0.01 0.02 0.02 0.02 0.01 0.02 0.03 0.04
0.03 0.04 0.04 0.06 0.05 0.03 0.03 0.03 0.05 0.08 0.16 0.17 0.21 0.19 0.16 0.14 0.20 0.28 0.26 0.16 0.10 0.11 0.08 0.07 0.08 0.08 0.06 0.03 0.01 0.01 0.01 0.03 0.05 0.06 0.07 0.09 0.11 0.12
0.04 0.04 0.04 0.05 0.04 0.03 0.03 0.04 0.04 0.05 0.07 0.12 0.14 0.17 0.16 0.14 0.12 0.18 0.31 0.34 0.25 0.19 0.15 0.10 0.09 0.07 0.07 0.08 0.06 0.05 0.06 0.07 0.09 0.10 0.11 0.11 0.10 0.09
0.04 0.05 0.05 0.07 0.05 0.05 0.07 0.09 0.11 0.12 0.09 0.09 0.10 0.14 0.16 0.14 0.13 0.07 0.14 0.29 0.37 0.29 0.21 0.18 0.13 0.12 0.10 0.09 0.11 0.13 0.14 0.14 0.14 0.15 0.15 0.11 0.09 0.08
0.04 0.04 0.04 0.09 0.07 0.12 0.12 0.16 0.19 0.24 0.17 0.10 0.09 0.11 0.10 0.12 0.14 0.14 0.17 0.27 0.33 0.26 0.27 0.31 0.27 0.24 0.24 0.21 0.25 0.27 0.29 0.29 0.25 0.21 0.17 0.15 0.10 0.08
0.06 0.06 0.06 0.04 0.06 0.06 0.16 0.20 0.23 0.26 0.21 0.17 0.16 0.14 0.17 0.17 0.25 0.29 0.21 0.17 0.18 0.22 0.40 0.47 0.41 0.32 0.26 0.33 0.40 0.29 0.27 0.27 0.24 0.20 0.13 0.10 0.07 0.05
0.07 0.06 0.07 0.07 0.10 0.08 0.07 0.13 0.14 0.22 0.30 0.29 0.21 0.18 0.24 0.32 0.30 0.27 0.31 0.35 0.42 0.46 0.39 0.31 0.29 0.35 0.33 0.30 0.38 0.28 0.24 0.20 0.18 0.14 0.10 0.07 0.04 0.03
0.05 0.06 0.09 0.05 0.12 0.14 0.08 0.08 0.11 0.12 0.23 0.28 0.31 0.37 0.39 0.44 0.34 0.32 0.38 0.35 0.31 0.21 0.21 0.22 0.25 0.30 0.33 0.29 0.30 0.34 0.24 0.21 0.17 0.12 0.08 0.04 0.02 0.01
0.15 0.10 0.10 0.08 0.12 0.07 0.06 0.06 0.07 0.08 0.10 0.13 0.13 0.12 0.20 0.35 0.41 0.21 0.18 0.26 0.24 0.21 0.17 0.24 0.26 0.26 0.29 0.26 0.22 0.24 0.27 0.27 0.18 0.12 0.07 0.02 0.01 0.00
0.09 0.09 0.11 0.13 0.11 0.11 0.08 0.04 0.08 0.08 0.13 0.09 0.10 0.13 0.14 0.14 0.19 0.26 0.22 0.23 0.23 0.21 0.18 0.23 0.22 0.23 0.25 0.23 0.24 0.26 0.23 0.23 0.17 0.12 0.06 0.03 0.01 0.00
0.11 0.14 0.15 0.21 0.19 0.21 0.16 0.14 0.10 0.11 0.05 0.04 0.04 0.06 0.10 0.13 0.13 0.12 0.17 0.25 0.32 0.34 0.38 0.32 0.23 0.20 0.21 0.23 0.18 0.23 0.21 0.16 0.12 0.08 0.03 0.02 0.01 0.00
0.25 0.29 0.29 0.28 0.26 0.23 0.24 0.21 0.16 0.05 0.03 0.05 0.07 0.07 0.06 0.08 0.12 0.15 0.16 0.16 0.22 0.40 0.46 0.39 0.31 0.32 0.29 0.24 0.21 0.20 0.21 0.19 0.13 0.08 0.03 0.01 0.00 0.00
0.40 0.36 0.32 0.28 0.28 0.27 0.20 0.16 0.05 0.07 0.10 0.05 0.07 0.10 0.10 0.08 0.08 0.11 0.15 0.16 0.17 0.24 0.27 0.31 0.32 0.30 0.29 0.25 0.21 0.22 0.18 0.13 0.09 0.05 0.02 0.00 0.00 0.00
0.39 0.39 0.44 0.36 0.27 0.24 0.19 0.16 0.15 0.16 0.15 0.12 0.12 0.11 0.13 0.13 0.16 0.15 0.12 0.09 0.10 0.14 0.17 0.18 0.17 0.17 0.20 0.21 0.20 0.18 0.14 0.09 0.05 0.02 0.00 0.00 0.00 0.00
0.65 0.61 0.58 0.53 0.44 0.42 0.46 0.41 0.38 0.40 0.30 0.29 0.33 0.30 0.26 0.22 0.20 0.20 0.20 0.18 0.16 0.17 0.15 0.16 0.14 0.11 0.10 0.12 0.10 0.09 0.06 0.03 0.01 0.00 0.00 0.00 0.00 0.00
1.03 1.06 0.97 0.85 0.73 0.64 0.57 0.56 0.55 0.52 0.47 0.42 0.40 0.40 0.37 0.34 0.33 0.25 0.23 0.19 0.17 0.17 0.16 0.16 0.14 0.11 0.09 0.07 0.05 0.02 0.01 0.00 0.00 0.00 0.00 0.00 0.00 0.00
1.23 1.18 1.19 1.16 1.06 0.93 0.84 0.72 0.65 0.61 0.55 0.49 0.40 0.36 0.33 0.29 0.26 0.24 0.21 0.18 0.16 0.15 0.13 0.11 0.08 0.06 0.04 0.03 0.01 0.00 0.00 0.00 0.00 0.00 0.00 0.00 0.00 0.00
0.89 0.89 0.86 0.84 0.85 0.84 0.78 0.71 0.64 0.58 0.51 0.45 0.41 0.35 0.31 0.25 0.24 0.21 0.18 0.14 0.10 0.07 0.06 0.04 0.03 0.01 0.00 0.00 0.00 0.00 0.00 0.00 0.00 0.00 0.00 0.00 0.00 0.00
0.51 0.52 0.53 0.49 0.47 0.46 0.47 0.46 0.41 0.38 0.35 0.31 0.27 0.23 0.20 0.16 0.14 0.11 0.08 0.05 0.03 0.02 0.01 0.01 0.00 0.00 0.00 0.00 0.00 0.00 0.00 0.00 0.00 0.00 0.00 0.00 0.00 0.00
0.27 0.29 0.30 0.29 0.27 0.24 0.20 0.18 0.17 0.16 0.15 0.13 0.11 0.10 0.08 0.07 0.05 0.04 0.03 0.01 0.01 0.00 0.00 0.00 0.00 0.00 0.00 0.00 0.00 0.00 0.00 0.00 0.00 0.00 0.00 0.00 0.00 0.00